Flag for Turkey Weather past 2 weeks in Mersin, Turkey

Now
82 °F

Passing clouds.


Feels Like: 91 °F
Forecast: 73 / 95 °F
Wind: 3 mph from Southeast

Location: Adana / Sakirpasa

Current Time: Aug 30, 2014 at 11:59:40 PM

Latest Report: Aug 30, 2014 at 11:20 PM


Visibility: N/A

Pressure: 29.77 "Hg

Humidity: 84%

Dew point: 77 °F

Location of MersinLocation

Historic Weather in Mersin — Graph

°F

Mersin temperature yesterday

Maximum temperature yesterday: 95 °F (at 1:20 PM)
Minimum temperature yesterday: 79 °F (at 3:50 AM)
Average temperature yesterday: 86 °F

Past Weeks' High & Low Weather Summary

 TemperatureHumidityPressure
High102 °F (Aug 25, 1:50 PM)94% (Aug 16, 3:20 AM)29.89 "Hg (Aug 16, 3:20 AM)
Low73 °F (Aug 21, 5:50 AM)24% (Aug 25, 2:50 PM)29.53 "Hg (Aug 17, 2:20 PM)
Average85 °F71%29.73 "Hg
* Reported Aug 15 10:20 PM — Aug 30 10:50 PM, Mersin, Weather by CustomWeather, © 2014

Note: Actual official high and low records may vary slightly from our data, if they occured in-between our weather recording intervals... More about our weather records

Advertising

Mersin weather history for previous 24 hours

 ConditionsComfort  
Time TempWeatherWind HumidityBarometerVisibility
10:50 PM
Aug 30
82 °FPassing clouds.3 mph84%29.77 "HgN/A
10:20 PM82 °FPassing clouds.2 mph84%29.77 "HgN/A
9:50 PM82 °FPassing clouds.1 mph79%29.77 "HgN/A
8:50 PM82 °FPassing clouds.3 mph79%29.77 "HgN/A
8:20 PM84 °FPassing clouds.6 mph74%29.74 "HgN/A
7:50 PM84 °FPassing clouds.6 mph74%29.74 "HgN/A
7:20 PM86 °FPassing clouds.8 mph70%29.74 "HgN/A
6:50 PM88 °FPassing clouds.9 mph66%29.74 "HgN/A
6:20 PM90 °FPassing clouds.9 mph59%29.71 "HgN/A
5:50 PM91 °FPassing clouds.10 mph56%29.71 "HgN/A
5:20 PM91 °FPassing clouds.10 mph56%29.71 "HgN/A
4:50 PM93 °FPassing clouds.13 mph53%29.71 "Hg3 mi
4:20 PM91 °FPassing clouds.10 mph56%29.71 "Hg4 mi
3:50 PM95 °FPassing clouds.14 mph50%29.71 "Hg4 mi
3:20 PM95 °FPassing clouds.13 mph50%29.71 "Hg4 mi
2:50 PM95 °FPassing clouds.14 mph50%29.74 "Hg4 mi
2:20 PM95 °FPassing clouds.13 mph50%29.74 "Hg6 mi
1:50 PM97 °FPassing clouds.9 mph50%29.74 "HgN/A
1:20 PM95 °FPassing clouds.8 mph44%29.74 "HgN/A
12:50 PM95 °FScattered clouds.6 mph44%29.74 "HgN/A
12:20 PM95 °FScattered clouds.6 mph47%29.77 "HgN/A
11:50 AM93 °FScattered clouds.6 mph53%29.77 "HgN/A
11:20 AM91 °FScattered clouds.5 mph56%29.77 "HgN/A
10:50 AM90 °FScattered clouds.5 mph63%29.77 "HgN/A
10:20 AM90 °FScattered clouds.1 mph63%29.77 "HgN/A
9:50 AM88 °FScattered clouds.5 mph70%29.77 "HgN/A
9:20 AM86 °FScattered clouds.1 mph75%29.77 "HgN/A
8:50 AM84 °FScattered clouds.3 mph79%29.80 "HgN/A
8:20 AM84 °FPassing clouds.3 mph79%29.80 "HgN/A
7:50 AM84 °FPassing clouds.3 mph74%29.77 "HgN/A
7:20 AM82 °FPassing clouds.No wind84%29.77 "HgN/A
6:50 AM79 °FFog.No wind89%29.77 "Hg3 mi
6:20 AM77 °FFog.2 mph94%29.77 "Hg3 mi
5:50 AM79 °FPassing clouds.1 mph89%29.77 "HgN/A
5:20 AM79 °FFog.3 mph89%29.77 "Hg3 mi
4:50 AM81 °FFog.3 mph89%29.77 "Hg3 mi
4:20 AM81 °FFog.5 mph89%29.77 "Hg3 mi
3:50 AM81 °FFog.3 mph89%29.77 "Hg3 mi
3:20 AM81 °FFog.3 mph89%29.77 "Hg3 mi
2:50 AM81 °FFog.1 mph89%29.77 "Hg3 mi
2:20 AM82 °FFog.1 mph84%29.77 "Hg3 mi
1:50 AM81 °FFog.1 mph89%29.77 "Hg3 mi
1:20 AM81 °FPassing clouds.3 mph89%29.77 "HgN/A
12:50 AM81 °FPassing clouds.5 mph89%29.77 "HgN/A
12:20 AM81 °FPassing clouds.6 mph89%29.77 "HgN/A
11:50 PM
Aug 29
81 °FPassing clouds.7 mph89%29.77 "HgN/A
Weather by CustomWeather, © 2014

See weather overviewHow to use our weather pages